User: anonymous   Login
Location: Whitehorse
(60.7170°N, 135.0500°W)
Time: 14:58:12
(UTC-07:00)
Language:

Cosmos 2219 Rocket - Orbit

View from above orbital plane
View from above orbital plane
View from above satellite
View from above satellite

Ground track
Ground track

The orbit data is extracted from the following two-line orbital elements,

1 22220U 92076B   15216.54586751  .00000113  00000-0  81170-4 0  9994
2 22220 070.9997 056.1208 0014659 237.9831 188.0754 14.16371931174114
Epoch (UTC): 04 August 2015 13:06:02
Eccentricity: 0.0014659
inclination: 70.9997°
perigee height: 827 km
apogee height: 848 km
right ascension of ascending node: 56.1208°
argument of perigee: 237.9831°
revolutions per day: 14.16371931
mean anomaly at epoch: 188.0754°
orbit number at epoch: 17411

The dashed part of the orbit path shows where the satellite is in the earth's shadow,  

DLR